Location: Invercargill
(46.4000°S, 168.3500°E)
Time: 17:58:43
(UTC+12:00)

Lacrosse 5 - Pass Details

Date: 14 May 2021
Orbit: 715 x 724 km, 57.0° (Epoch: 09 June)

Event Time Altitude Azimuth Distance (km) Brightness Sun altitude
Rises 19:26:04 0° 231° (SW) 3,163 5.9 -20.8°
Reaches altitude 10° 19:28:29 10° 229° (SW) 2,237 5.0 -21.2°
Maximum altitude 19:33:39 72° 144° (SE) 768 1.8 -22.1°
Enters shadow 19:34:39 56° 82° (E) 867 1.9 -22.2°
